DW3766 Weather Reports


Display with metric or nautical units.
time (UTC)temp
F
wind
direction
speed
MPH
gust
MPH
rain 1hr
in
rain 24hr
in
rain mn
in
humidity
%
barometer
mb
20260904004137 89 124 10.0 20.0 0.00 0.00 0.00 1010.7
20260904003614 90 90 11.0 20.0 0.00 0.00 0.00 1010.6
20260904003142 91 115 10.0 19.0 0.00 0.00 0.00 1010.6
20260904002617 91 120 9.0 20.0 0.00 0.00 0.00 1010.4
20260904002145 92 123 11.0 18.0 0.00 0.00 0.00 1010.4
20260904001659 93 105 11.0 19.0 0.00 0.00 0.00 1010.2
20260904000706 94 85 10.0 15.0 0.00 0.00 0.00 1010.3
20260904000135 94 163 7.0 12.0 0.00 0.00 0.00 1010.2
20260903235642 94 126 6.0 12.0 0.00 0.00 0.00 1010.1
20260903235115 94 115 7.0 14.0 0.00 0.00 0.00 1010.1
20260903234642 94 130 5.0 14.0 0.00 0.00 0.00 1010.0
20260903234118 94 117 9.0 14.0 0.00 0.00 0.00 1010.0
20260903233647 94 129 5.0 11.0 0.00 0.00 0.00 1010.1
20260903233201 94 84 7.0 13.0 0.00 0.00 0.00 1010.1
20260903232634 94 113 7.0 13.0 0.00 0.00 0.00 1010.0
20260903232150 94 131 4.0 13.0 0.00 0.00 0.00 1010.0
20260903231619 94 106 9.0 13.0 0.00 0.00 0.00 1009.9
20260903231155 94 132 8.0 15.0 0.00 0.00 0.00 1009.9
20260903230618 94 161 9.0 15.0 0.00 0.00 0.00 1009.9
20260903230154 94 107 9.0 15.0 0.00 0.00 0.00 1009.9
20260903225621 94 98 8.0 15.0 0.00 0.00 0.00 1009.9
20260903225149 94 136 6.0 13.0 0.00 0.00 0.00 1009.8
20260903224624 95 126 8.0 14.0 0.00 0.00 0.00 1009.8
20260903224131 95 140 8.0 16.0 0.00 0.00 0.00 1009.8
20260903223706 97 117 10.0 16.0 0.00 0.00 0.00 1009.7
20260903223138 98 119 9.0 13.0 0.00 0.00 0.00 1009.7
20260903222713 99 122 8.0 14.0 0.00 0.00 0.00 1009.5
20260903222121 100 153 8.0 14.0 0.00 0.00 0.00 1009.4
20260903221658 100 78 9.0 12.0 0.00 0.00 0.00 1009.4
20260903221146 100 170 5.0 14.0 0.00 0.00 0.00 1009.3
20260903220615 100 156 8.0 11.0 0.00 0.00 0.00 1009.5
20260903220152 99 126 3.0 15.0 0.00 0.00 0.00 1009.4
20260903215640 99 71 8.0 15.0 0.00 0.00 0.00 1009.5
20260903215116 100 113 3.0 11.0 0.00 0.00 0.00 1009.6
20260903214644 99 101 4.0 9.0 0.00 0.00 0.00 1009.6
20260903214220 99 98 5.0 10.0 0.00 0.00 0.00 1009.7
20260903213633 99 190 4.0 12.0 0.00 0.00 0.00 1009.7
20260903213142 98 138 7.0 11.0 0.00 0.00 0.00 1009.8
20260903212710 98 119 6.0 14.0 0.00 0.00 0.00 1009.9
20260903212224 98 119 6.0 14.0 0.00 0.00 0.00 1009.9
20260903211632 98 158 6.0 12.0 0.00 0.00 0.00 1010.0
20260903211142 99 130 5.0 8.0 0.00 0.00 0.00 1010.1
20260903210657 98 168 2.0 10.0 0.00 0.00 0.00 1010.1
20260903210224 98 51 6.0 10.0 0.00 0.00 0.00 1010.1
20260903205640 99 167 1.0 11.0 0.00 0.00 0.00 1010.3
20260903205148 99 149 6.0 11.0 0.00 0.00 0.00 1010.5
20260903204621 99 116 4.0 8.0 0.00 0.00 0.00 1010.4
20260903204156 99 143 5.0 9.0 0.00 0.00 0.00 1010.5
20260903203642 98 175 5.0 10.0 0.00 0.00 0.00 1010.6
20260903203154 98 123 4.0 10.0 0.00 0.00 0.00 1010.7
20260903202723 98 109 5.0 11.0 0.00 0.00 0.00 1010.7
20260903202126 99 113 8.0 13.0 0.00 0.00 0.00 1010.7
20260903201653 98 190 6.0 13.0 0.00 0.00 0.00 1010.8
20260903201148 99 145 4.0 10.0 0.00 0.00 0.00 1010.9
20260903200615 99 128 7.0 12.0 0.00 0.00 0.00 1010.9
20260903200144 99 112 5.0 10.0 0.00 0.00 0.00 1011.0
20260903195616 99 236 5.0 10.0 0.00 0.00 0.00 1011.0
20260903195146 98 207 5.0 10.0 0.00 0.00 0.00 1010.9
20260903194718 98 237 6.0 10.0 0.00 0.00 0.00 1011.1
20260903194129 98 165 6.0 11.0 0.00 0.00 0.00 1011.1
20260903193146 99 170 7.0 13.0 0.00 0.00 0.00 1011.3
20260903192655 98 188 2.0 11.0 0.00 0.00 0.00 1011.3
20260903192131 98 195 7.0 11.0 0.00 0.00 0.00 1011.4
20260903191701 98 116 3.0 10.0 0.00 0.00 0.00 1011.5
20260903191130 98 213 6.0 12.0 0.00 0.00 0.00 1011.7
20260903190643 98 207 5.0 12.0 0.00 0.00 0.00 1011.8
20260903190114 97 246 4.0 13.0 0.00 0.00 0.00 1011.9
20260903185651 96 161 6.0 13.0 0.00 0.00 0.00 1012.0
20260903185120 96 150 7.0 15.0 0.00 0.00 0.00 1012.1
20260903184649 96 141 6.0 15.0 0.00 0.00 0.00 1012.3
20260903184225 96 189 6.0 14.0 0.00 0.00 0.00 1012.3
20260903183632 96 143 4.0 10.0 0.00 0.00 0.00 1012.4
20260903183204 96 225 6.0 13.0 0.00 0.00 0.00 1012.5
20260903182632 96 213 6.0 13.0 0.00 0.00 0.00 1012.5
20260903182140 96 195 5.0 9.0 0.00 0.00 0.00 1012.6
20260903181617 95 176 5.0 10.0 0.00 0.00 0.00 1012.7
20260903181147 95 225 5.0 12.0 0.00 0.00 0.00 1012.7
20260903180622 94 196 5.0 12.0 0.00 0.00 0.00 1012.8
20260903180151 94 196 6.0 13.0 0.00 0.00 0.00 1012.9
20260903175143 94 210 6.0 12.0 0.00 0.00 0.00 1013.0
20260903174649 94 146 7.0 14.0 0.00 0.00 0.00 1013.1
20260903174204 94 154 8.0 14.0 0.00 0.00 0.00 1013.1
20260903173632 93 194 5.0 10.0 0.00 0.00 0.00 1013.2
20260903173151 93 168 6.0 13.0 0.00 0.00 0.00 1013.2
20260903172623 93 173 8.0 13.0 0.00 0.00 0.00 1013.3
20260903172159 93 154 8.0 13.0 0.00 0.00 0.00 1013.4
20260903171623 93 157 6.0 12.0 0.00 0.00 0.00 1013.4
20260903171131 92 209 6.0 12.0 0.00 0.00 0.00 1013.4
20260903170635 91 170 4.0 14.0 0.00 0.00 0.00 1013.5
20260903170209 91 181 8.0 14.0 0.00 0.00 0.00 1013.7
20260903165638 91 171 7.0 12.0 0.00 0.00 0.00 1013.7
20260903165153 90 163 4.0 10.0 0.00 0.00 0.00 1013.7
20260903164620 90 173 7.0 12.0 0.00 0.00 0.00 1013.7
20260903164156 90 204 5.0 12.0 0.00 0.00 0.00 1013.8
20260903163627 90 167 7.0 12.0 0.00 0.00 0.00 1013.9
20260903163204 89 185 6.0 12.0 0.00 0.00 0.00 1013.9
20260903162712 89 190 6.0 12.0 0.00 0.00 0.00 1013.9
20260903162147 89 158 7.0 10.0 0.00 0.00 0.00 1013.9
20260903161616 89 155 7.0 11.0 0.00 0.00 0.00 1013.9
20260903161155 89 220 6.0 11.0 0.00 0.00 0.00 1013.9
20260903160622 89 173 5.0 13.0 0.00 0.00 0.00 1013.8
20260903160131 89 190 7.0 13.0 0.00 0.00 0.00 1013.8
20260903155640 89 206 5.0 8.0 0.00 0.00 0.00 1013.8
20260903155121 88 195 4.0 11.0 0.00 0.00 0.00 1013.8
20260903154649 88 184 6.0 11.0 0.00 0.00 0.00 1013.9
20260903154125 88 180 6.0 13.0 0.00 0.00 0.00 1013.9
20260903153655 88 197 6.0 13.0 0.00 0.00 0.00 1013.9
20260903153207 88 181 5.0 13.0 0.00 0.00 0.00 1013.9
20260903152616 87 171 5.0 10.0 0.00 0.00 0.00 1013.8
20260903152152 87 213 5.0 11.0 0.00 0.00 0.00 1013.8
20260903151621 86 200 5.0 11.0 0.00 0.00 0.00 1013.8
20260903151150 85 208 6.0 12.0 0.00 0.00 0.00 1013.8
20260903150631 85 199 9.0 12.0 0.00 0.00 0.00 1013.8
20260903150200 85 171 6.0 15.0 0.00 0.00 0.00 1013.9
20260903145636 84 223 10.0 15.0 0.00 0.00 0.00 1014.0
20260903145203 84 205 8.0 13.0 0.00 0.00 0.00 1014.0
20260903144640 84 175 7.0 12.0 0.00 0.00 0.00 1014.0
20260903144206 84 166 5.0 12.0 0.00 0.00 0.00 1013.9
20260903143643 84 177 9.0 13.0 0.00 0.00 0.00 1014.0
20260903143212 83 190 8.0 15.0 0.00 0.00 0.00 1014.0
20260903142718 83 215 8.0 15.0 0.00 0.00 0.00 1014.0
20260903142113 83 194 8.0 12.0 0.00 0.00 0.00 1014.1
20260903141641 83 190 6.0 11.0 0.00 0.00 0.00 1014.1
20260903141215 82 171 6.0 14.0 0.00 0.00 0.00 1014.2
20260903140625 82 220 9.0 14.0 0.00 0.00 0.00 1014.2
20260903140202 81 169 6.0 10.0 0.00 0.00 0.00 1014.2
20260903135630 81 165 4.0 11.0 0.00 0.00 0.00 1014.2
20260903135200 81 215 7.0 11.0 0.00 0.00 0.00 1014.2
20260903134628 80 216 5.0 9.0 0.00 0.00 0.00 1014.3
20260903134204 80 211 6.0 13.0 0.00 0.00 0.00 1014.3
20260903133632 80 213 5.0 13.0 0.00 0.00 0.00 1014.3
20260903133119 80 137 4.0 9.0 0.00 0.00 0.00 1014.4
20260903132656 80 198 4.0 12.0 0.00 0.00 0.00 1014.3
20260903132129 80 166 5.0 12.0 0.00 0.00 0.00 1014.3
20260903131704 79 207 4.0 8.0 0.00 0.00 0.00 1014.4
20260903131132 79 193 4.0 8.0 0.00 0.00 0.00 1014.3
20260903130701 79 206 5.0 7.0 0.00 0.00 0.00 1014.3
20260903130138 79 192 5.0 7.0 0.00 0.00 0.00 1014.2
20260903125643 79 203 4.0 7.0 0.00 0.00 0.00 1014.2
20260903125129 79 187 2.0 7.0 0.00 0.00 0.00 1014.1
20260903124706 79 212 5.0 7.0 0.00 0.00 0.00 1014.1
20260903124135 79 200 2.0 6.0 0.00 0.00 0.00 1014.1
20260903123616 79 160 3.0 6.0 0.00 0.00 0.00 1014.1
20260903123145 79 197 2.0 5.0 0.00 0.00 0.00 1014.0
20260903122722 79 244 2.0 6.0 0.00 0.00 0.00 1013.9
20260903122130 79 199 3.0 5.0 0.00 0.00 0.00 1013.8
20260903121646 79 150 2.0 4.0 0.00 0.00 0.00 1013.8
20260903121114 79 183 2.0 4.0 0.00 0.00 0.00 1013.8
20260903120650 79 188 1.0 4.0 0.00 0.00 0.00 1013.7
20260903120159 79 190 1.0 5.0 0.00 0.00 0.00 1013.8
20260903115629 79 222 2.0 6.0 0.00 0.00 0.00 1013.8
20260903115146 79 159 2.0 6.0 0.00 0.00 0.00 1013.8
20260903114653 79 189 1.0 5.0 0.00 0.00 0.00 1013.7
20260903114134 79 194 2.0 5.0 0.00 0.00 0.00 1013.7
20260903113703 79 210 3.0 7.0 0.00 0.00 0.00 1013.6
20260903113131 79 190 2.0 8.0 0.00 0.00 0.00 1013.6
20260903112708 79 179 4.0 8.0 0.00 0.00 0.00 1013.6
20260903112138 79 185 3.0 9.0 0.00 0.00 0.00 1013.5
20260903111652 79 197 5.0 9.0 0.00 0.00 0.00 1013.5
20260903111221 79 170 5.0 9.0 0.00 0.00 0.00 1013.5
20260903110637 79 207 3.0 7.0 0.00 0.00 0.00 1013.4
20260903110147 79 191 1.0 7.0 0.00 0.00 0.00 1013.3
20260903105714 79 201 5.0 8.0 0.00 0.00 0.00 1013.4
20260903105133 79 207 3.0 10.0 0.00 0.00 0.00 1013.3
20260903104703 79 171 4.0 10.0 0.00 0.00 0.00 1013.2
20260903104140 79 200 4.0 8.0 0.00 0.00 0.00 1013.2
20260903103658 79 208 2.0 6.0 0.00 0.00 0.00 1013.3
20260903103212 79 188 3.0 8.0 0.00 0.00 0.00 1013.3
20260903102642 79 187 3.0 8.0 0.00 0.00 0.00 1013.3
20260903102143 79 155 2.0 8.0 0.00 0.00 0.00 1013.2
20260903101614 79 169 4.0 8.0 0.00 0.00 0.00 1013.2
20260903101143 79 173 5.0 7.0 0.00 0.00 0.00 1013.2
20260903100623 79 161 3.0 8.0 0.00 0.00 0.00 1013.3
20260903100151 79 180 4.0 8.0 0.00 0.00 0.00 1013.3
20260903095620 79 169 3.0 8.0 0.00 0.00 0.00 1013.3
20260903095154 79 178 3.0 8.0 0.00 0.00 0.00 1013.3
20260903094722 79 143 4.0 8.0 0.00 0.00 0.00 1013.3
20260903094137 79 171 3.0 7.0 0.00 0.00 0.00 1013.4
20260903093647 79 134 4.0 7.0 0.00 0.00 0.00 1013.3
20260903093155 79 162 4.0 11.0 0.00 0.00 0.00 1013.3
20260903092631 79 188 6.0 11.0 0.00 0.00 0.00 1013.4
20260903092159 79 168 4.0 6.0 0.00 0.00 0.00 1013.4
20260903091619 79 154 1.0 5.0 0.00 0.00 0.00 1013.4
20260903091149 79 116 2.0 2.0 0.00 0.00 0.00 1013.5
20260903090626 79 116 1.0 4.0 0.00 0.00 0.00 1013.5
20260903090135 79 115 2.0 3.0 0.00 0.00 0.00 1013.5
20260903085617 79 109 1.0 2.0 0.00 0.00 0.00 1013.5
20260903085153 79 161 0.0 2.0 0.00 0.00 0.00 1013.4
20260903084623 79 161 1.0 5.0 0.00 0.00 0.00 1013.4
20260903084159 79 161 2.0 7.0 0.00 0.00 0.00 1013.4
20260903083631 79 130 3.0 7.0 0.00 0.00 0.00 1013.4
20260903083205 79 137 2.0 3.0 0.00 0.00 0.00 1013.4
20260903082635 80 117 1.0 5.0 0.00 0.00 0.00 1013.5
20260903082210 80 117 2.0 5.0 0.00 0.00 0.00 1013.5
20260903081619 80 126 2.0 5.0 0.00 0.00 0.00 1013.5
20260903081126 80 101 2.0 6.0 0.00 0.00 0.00 1013.5
20260903080702 80 123 4.0 7.0 0.00 0.00 0.00 1013.5
20260903080132 80 123 4.0 7.0 0.00 0.00 0.00 1013.5
20260903075145 80 155 4.0 6.0 0.00 0.00 0.00 1013.5
20260903074619 80 129 3.0 7.0 0.00 0.00 0.00 1013.5
20260903074153 80 142 3.0 7.0 0.00 0.00 0.00 1013.5
20260903073702 81 142 3.0 5.0 0.00 0.00 0.00 1013.5
20260903073136 81 144 2.0 5.0 0.00 0.00 0.00 1013.5
20260903072646 81 144 2.0 7.0 0.00 0.00 0.00 1013.5
20260903072114 81 117 2.0 7.0 0.00 0.00 0.00 1013.6
20260903071650 81 98 2.0 8.0 0.00 0.00 0.00 1013.6
20260903071118 81 134 4.0 8.0 0.00 0.00 0.00 1013.5
20260903070655 81 163 4.0 8.0 0.00 0.00 0.00 1013.5
20260903070129 81 162 5.0 9.0 0.00 0.00 0.00 1013.5
20260903065623 81 117 4.0 9.0 0.00 0.00 0.00 1013.6
20260903065119 81 155 5.0 8.0 0.00 0.00 0.00 1013.7
20260903064653 82 105 4.0 7.0 0.00 0.00 0.00 1013.8
20260903064200 82 119 4.0 7.0 0.00 0.00 0.00 1013.9
20260903063621 82 65 5.0 7.0 0.00 0.00 0.00 1013.8
20260903063120 83 115 2.0 5.0 0.00 0.00 0.00 1013.7
20260903062626 83 138 2.0 5.0 0.00 0.00 0.00 1013.7
20260903062123 83 134 3.0 6.0 0.00 0.00 0.00 1013.7
20260903061623 83 111 3.0 6.0 0.00 0.00 0.00 1013.7
20260903061127 83 83 4.0 6.0 0.00 0.00 0.00 1013.7
20260903060647 83 74 2.0 6.0 0.00 0.00 0.00 1013.7
20260903060114 83 104 3.0 6.0 0.00 0.00 0.00 1013.6
20260903055639 83 154 3.0 7.0 0.00 0.00 0.00 1013.7
20260903055145 84 115 3.0 7.0 0.00 0.00 0.00 1013.8
20260903054652 84 131 2.0 7.0 0.00 0.00 0.00 1013.8
20260903054136 84 136 3.0 7.0 0.00 0.00 0.00 1013.8
20260903053616 84 128 2.0 6.0 0.00 0.00 0.00 1013.7
20260903053124 84 109 4.0 7.0 0.00 0.00 0.00 1013.8
20260903052625 84 84 4.0 8.0 0.00 0.00 0.00 1013.7
20260903052133 85 96 5.0 9.0 0.00 0.00 0.00 1013.6
20260903051615 85 70 3.0 9.0 0.00 0.00 0.00 1013.5
20260903051116 85 98 4.0 9.0 0.00 0.00 0.00 1013.4
20260903050644 85 111 5.0 9.0 0.00 0.00 0.00 1013.3
20260903050127 85 120 5.0 12.0 0.00 0.00 0.00 1013.2
20260903045709 85 163 5.0 13.0 0.00 0.00 0.00 1013.0
20260903045135 85 159 9.0 13.0 0.00 0.00 0.00 1013.0
20260903044644 85 155 7.0 11.0 0.00 0.00 0.00 1013.0
20260903044215 85 143 7.0 11.0 0.00 0.00 0.00 1013.0
20260903043703 85 134 2.0 6.0 0.00 0.00 0.00 1012.9
20260903043132 85 123 3.0 7.0 0.00 0.00 0.00 1012.9
20260903042649 85 154 2.0 10.0 0.00 0.00 0.00 1012.9
20260903042121 85 133 4.0 6.0 0.00 0.00 0.00 1012.9
20260903041658 85 128 1.0 5.0 0.00 0.00 0.00 1012.9
20260903041126 85 121 1.0 5.0 0.00 0.00 0.00 1012.9
20260903040702 84 120 2.0 3.0 0.00 0.00 0.00 1012.9
20260903040130 84 139 2.0 5.0 0.00 0.00 0.00 1012.9
20260903035700 84 153 2.0 5.0 0.00 0.00 0.00 1012.8
20260903035136 83 126 1.0 7.0 0.00 0.00 0.00 1012.8
20260903034705 83 138 3.0 7.0 0.00 0.00 0.00 1012.8
20260903034145 82 144 3.0 6.0 0.00 0.00 0.00 1012.7
20260903033649 82 128 3.0 6.0 0.00 0.00 0.00 1012.6
20260903033115 82 107 5.0 6.0 0.00 0.00 0.00 1012.7
20260903032615 83 142 2.0 4.0 0.00 0.00 0.00 1012.5
20260903032149 83 142 0.0 0.0 0.00 0.00 0.00 1012.3
20260903031618 83 142 0.0 0.0 0.00 0.00 0.00 1012.2
20260903031154 84 142 0.0 0.0 0.00 0.00 0.00 1012.2
20260903030719 84 142 0.0 0.0 0.00 0.00 0.00 1012.1
20260903030135 84 142 0.0 0.0 0.00 0.00 0.00 1012.1
20260903025705 85 142 0.0 0.0 0.00 0.00 0.00 1012.0
20260903025134 85 142 0.0 0.0 0.00 0.00 0.00 1011.9
20260903024710 85 142 0.0 0.0 0.00 0.00 0.00 1011.9
20260903024122 86 142 0.0 0.0 0.00 0.00 0.00 1011.8
20260903023656 86 142 0.0 0.0 0.00 0.00 0.00 1011.6
20260903023204 86 142 0.0 0.0 0.00 0.00 0.00 1011.6
20260903022641 87 142 0.0 0.0 0.00 0.00 0.00 1011.5
20260903022207 87 142 0.0 0.0 0.00 0.00 0.00 1011.5
20260903021644 88 142 0.0 0.0 0.00 0.00 0.00 1011.3
20260903021113 88 142 0.0 0.0 0.00 0.00 0.00 1011.3
20260903020131 89 142 0.0 0.0 0.00 0.00 0.00 1011.2
20260903015707 90 142 0.0 0.0 0.00 0.00 0.00 1011.1
20260903015137 90 142 0.0 0.0 0.00 0.00 0.00 1011.1
20260903014646 91 142 0.0 0.0 0.00 0.00 0.00 1011.1
20260903014115 91 142 0.0 0.0 0.00 0.00 0.00 1011.1
20260903013652 92 142 0.0 0.0 0.00 0.00 0.00 1011.1
20260903013200 92 142 0.0 0.0 0.00 0.00 0.00 1011.0
20260903012637 93 142 0.0 0.0 0.00 0.00 0.00 1011.0
20260903012146 94 142 0.0 0.0 0.00 0.00 0.00 1011.0
20260903011619 94 142 0.0 0.0 0.00 0.00 0.00 1010.9
20260903011154 94 142 0.0 0.0 0.00 0.00 0.00 1010.8
20260903010700 95 142 0.0 1.0 0.00 0.00 0.00 1010.8
20260903010202 95 142 0.0 2.0 0.00 0.00 0.00 1010.8
20260903005710 95 142 1.0 2.0 0.00 0.00 0.00 1010.8
20260903005125 96 142 2.0 5.0 0.00 0.00 0.00 1010.9
20260903004655 96 146 2.0 5.0 0.00 0.00 0.00 1010.8